Reflectivity
-20 -20 -20 -20 3 7 -14 -1 -9 5 -17 -5 -0 -18 -20 -20 -20 -20 -20 -20 -20 -20 -20 -20 -16 -20 -20 5 -20 -20 -20 -20 -20 -20 -20 4 -20 5 8 -20 -7 19 -20 -10 -20 -20 -20
-20 -20 -20 -20 -20 -20 12 -2 6 11 8 11 10 10 11 -4 -14 -10 -20 -20 -20 -20 -20 -20 -16 -20 -20 13 -20 -20 -20 -20 -20 -20 -20 -10 3 -13 -6 -4 -2 -20 -1 17 0 -20 -20
-20 -20 10 3 13 16 16 15 15 4 9 16 16 13 17 15 13 11 14 -17 -20 -20 -20 -20 -20 -20 -7 -19 -20 -20 -20 -20 -20 -20 -1 -20 8 11 7 13 -20 -18 -14 -12 -19 9 -20
1 -16 6 -2 12 17 16 16 11 5 3 16 17 15 16 15 16 8 5 -20 -20 -20 -20 -20 -20 -17 -16 -20 -20 -20 -20 -6 -20 -20 -20 5 11 -20 14 26 19 16 12 8 -20 -20 -20
15 16 14 15 13 14 16 13 15 11 7 14 14 14 16 15 12 13 9 -20 -20 -20 -20 -20 -20 -6 -9 -20 -14 -20 -20 -20 -20 -9 -20 20 14 2 18 21 29 -12 -20 -20 -20 -20 -9
6 15 16 -8 13 14 14 16 11 7 17 16 15 15 13 14 3 11 -17 -20 -20 -20 -20 -20 -20 -13 -20 -20 -20 -20 -20 -19 9 6 18 31 30 26 16 7 -17 -20 -20 -20 -20 -13 22
-20 -17 12 14 11 8 14 16 15 13 17 13 15 13 11 5 -16 5 -20 -20 -20 -20 -20 -20 -20 -20 -20 -20 -20 -20 -20 -20 18 -0 15 14 9 4 -20 -20 -20 -20 -20 -20 -19 13 21
-20 -19 -16 11 13 13 5 9 15 14 13 10 -6 9 -12 12 -2 -20 -20 -20 -20 -20 -20 -20 -20 -20 -20 -20 -20 -13 -20 10 -12 1 10 7 0 -19 -20 -3 0 1 -1 -13 9 24 5
-20 -20 -0 -3 10 15 12 -15 -10 15 12 12 15 -15 2 -17 -20 -20 -20 -20 -20 -20 -20 -20 -20 -20 -20 -20 -15 -20 -13 -18 29 22 13 20 17 29 20 16 24 13 1 -6 -7 20 28
-20 -20 -9 9 4 13 9 4 4 3 15 14 11 -2 7 -20 -20 -20 -20 -20 -20 -20 -20 -20 -20 -20 -20 -18 -14 -20 -20 -17 35 8 29 27 27 19 29 26 23 20 11 9 30 2 20
2 -18 1 4 10 5 13 12 10 11 9 14 12 12 -4 -20 -20 -20 -20 -20 -20 -20 -20 -20 -20 -20 -20 -20 -20 -20 -20 -14 16 -1 22 -0 -3 6 15 4 23 20 -7 24 12 -20 -18
-20 -16 -10 13 11 12 12 15 9 12 -10 14 10 13 -12 -20 -20 -20 -20 -20 -20 -20 -20 -20 -20 -20 -20 -20 -20 -20 -20 -20 -20 -16 0 11 5 19 16 -3 8 -12 1 -5 17 8 16
3 -20 -12 -1 10 12 14 13 3 14 6 13 11 12 -8 -20 -20 -20 -20 -20 -20 -20 -20 -20 -20 -20 -20 -20 -20 -20 -14 -20 -6 4 25 6 9 -9 -3 -15 -11 1 -10 30 19 18 -11
-5 -20 -20 -8 -1 12 15 13 -0 10 11 12 6 7 -2 -20 -20 -20 -20 -20 -20 -20 -20 -20 -20 -20 -20 -20 -20 -20 -20 0 -11 -2 8 -4 6 8 -20 2 -20 -20 -20 6 8 -8 -20
-20 4 -20 -5 13 9 14 15 9 11 8 -7 -20 -20 -20 -20 -20 -20 -20 -19 -20 -20 -20 -20 -20 -20 -20 -17 -20 -20 3 -6 -20 -20 -19 25 -6 -2 -20 -20 -20 -20 -19 2 -0 -20 21
-20 -17 -4 -10 15 10 10 13 12 6 -11 -19 -20 -20 -20 -20 -20 -20 -20 -20 -20 -20 -20 -20 -20 -20 -12 -1 -20 -12 -0 -20 -20 -20 -20 -20 -2 -20 -20 -20 -20 -20 14 10 19 27 18
-19 -20 5 12 4 14 3 9 13 5 -20 -20 -20 -20 -20 -20 -20 -20 -20 -20 -20 -20 -20 -20 -20 -20 -20 -0 -20 -3 -20 -20 -20 -20 -20 -20 -20 14 -19 -20 -20 -9 23 7 15 -16 19
16 -20 -20 1 10 14 5 7 13 9 -20 -20 -20 -20 -7 -20 -17 -20 -20 -20 -20 -20 -20 -20 -20 -20 -20 -20 -20 -11 -20 -19 -20 -20 -20 -20 -20 11 10 -20 -20 -20 -16 -20 1 14 30
35 -14 -20 1 7 13 9 2 9 15 -9 -20 -20 -20 -20 -20 -20 -20 -20 -20 -20 -20 -20 -20 -20 -20 -20 -20 -20 -20 -20 -20 -20 -20 -20 -20 -20 -16 -20 -20 -20 -20 -20 0 8 18 21
12 26 14 -2 5 -3 14 7 14 10 12 -20 -20 -20 -20 -9 -20 -20 -20 -20 -20 -20 -20 -20 -20 -20 -20 -20 -20 -20 -20 -20 -20 -20 -20 -20 -20 -20 -8 -13 -20 -20 -20 -20 -2 12 -0
14 26 -12 14 1 4 13 4 11 -2 13 -17 -20 -20 -20 -20 -20 -20 -20 -20 -20 -20 -20 -20 -20 -20 -20 -20 -20 -20 -20 -20 -20 -20 -20 -20 -20 -20 -20 -19 -15 -20 -20 -18 -20 3 -20
27 -0 6 18 8 6 -0 5 -2 9 10 -18 -20 -20 -20 -20 -20 -20 -20 -20 -20 -20 -20 -20 -20 -20 -20 -20 -20 -20 -20 -20 -20 -20 -20 -20 -20 -20 -20 -20 -20 -20 -20 -20 -20 3 -20
15 29 32 19 5 -11 1 -13 -5 7 5 -19 -20 -20 -20 -20 -20 -20 -20 -20 -20 -20 -20 -20 -20 -20 -20 -20 -20 -20 -20 -20 -20 -20 -20 -20 -20 -20 -20 -20 -20 -20 -20 -20 -20 -14 -19
19 43 38 15 -0 6 5 -10 -9 -15 -12 -20 -20 -20 -20 -20 -20 -20 -20 -20 -20 -20 -20 -20 -20 -20 -20 -20 -20 -20 -20 -20 -20 -20 -20 -20 -20 -20 -20 -20 -20 -20 -20 -14 -18 -20 -3
19 44 37 13 -1 9 2 8 -18 -20 -20 -6 -20 -20 -20 -20 -20 -20 -20 -20 -20 -20 -20 -20 -20 -20 -20 -20 -20 -20 -20 -20 -20 -20 -20 -20 -20 -20 -20 -20 -20 -20 -20 -20 -1 -20 -20
18 17 26 20 21 8 9 11 13 11 9 -5 -20 -20 -20 -20 -20 -20 -20 -20 -20 -20 -20 -20 -20 -20 -20 -20 -20 -20 -20 -20 -20 -20 -20 -20 -20 -20 -20 -20 -20 -20 -20 -20 -20 -20 -20
15 9 22 26 36 11 3 7 12 14 3 -20 -20 -20 -20 -20 -20 -20 -20 -20 -20 -20 -20 -20 -20 -20 -20 -20 -20 -20 -20 -20 -20 -20 -20 -20 -20 -20 -20 -20 -20 -20 -20 -20 -20 -20 -18
11 16 21 25 34 23 6 1 5 -12 5 -15 -20 -20 -20 -20 -20 -20 -20 -20 -20 -20 -20 -20 -20 -20 -20 -20 -20 -20 -20 -20 -20 -20 -20 -20 -20 -20 -20 -20 -20 -20 -20 -20 -20 -20 -20
5 2 8 12 32 33 -13 -20 -20 -7 10 -9 0 -20 -20 -20 -20 -20 -20 -20 -20 -20 -20 -20 -20 -20 -20 -20 -20 -20 -20 -20 -20 -20 -20 -20 -20 -20 -20 -20 -20 -20 -20 -20 -20 -20 -20
Wind_Speed
7 6 7 6 6 4 5 4 7 7 8 9 9 9 10 10 11 11 12 13 14 15 15 15 13 11 9 5 8 8 4 4 8 8 9 11 13 11 12 7 13 17 20 18 16 23 18
7 7 9 7 6 6 5 6 6 6 8 8 9 10 11 11 11 12 13 14 15 15 15 14 10 6 5 10 4 3 5 7 9 10 12 11 11 12 10 15 16 9 14 16 18 21 17
8 7 9 9 8 7 7 7 6 7 8 9 10 10 11 11 12 14 15 17 16 16 15 13 7 6 9 13 2 1 5 8 8 11 15 13 11 10 6 7 7 9 13 13 15 15 19
9 8 9 8 8 9 8 8 8 9 9 10 11 11 12 12 13 14 16 17 17 16 15 11 6 6 6 7 2 7 8 10 7 11 15 14 7 13 16 3 2 1 4 7 10 13 18
10 9 9 9 9 9 10 9 9 9 10 11 11 12 12 12 14 15 17 18 18 18 11 9 5 5 6 3 4 2 2 6 9 10 8 12 8 7 2 4 1 3 6 9 13 16 12
9 11 10 9 8 9 10 10 10 10 11 11 10 11 12 13 13 15 17 21 15 9 8 8 6 5 5 9 8 2 1 7 3 4 3 5 4 5 5 6 10 6 6 9 12 6 21
8 9 9 9 8 9 9 10 11 11 11 11 11 10 12 13 13 14 12 5 2 4 8 6 6 8 10 11 7 3 2 6 3 5 5 6 6 10 11 10 10 10 11 13 14 12 15
8 9 9 9 7 8 8 7 11 11 11 11 10 10 11 12 13 12 8 4 4 2 7 7 7 10 7 2 6 4 3 2 4 6 7 3 10 12 8 9 12 14 16 20 17 16 15
10 9 10 5 6 7 6 5 9 11 11 11 10 9 9 11 12 8 2 4 2 5 5 5 4 5 4 2 6 4 5 5 1 4 10 9 3 3 17 10 11 13 16 14 13 16 25
13 11 10 6 4 5 5 6 8 8 10 10 10 8 8 10 6 2 1 2 3 5 2 6 3 2 3 5 5 4 5 3 2 3 6 6 5 9 11 9 10 9 17 22 16 16 8
13 12 10 6 3 3 6 7 7 8 9 9 8 6 6 4 7 2 3 2 2 3 3 6 2 2 5 7 9 6 5 4 5 4 4 2 3 6 11 9 12 10 5 12 14 12 6
15 11 11 7 5 5 7 7 5 8 8 7 7 5 5 4 4 3 1 2 2 2 3 5 1 5 7 4 4 4 5 4 0 6 8 4 3 4 3 9 15 13 7 3 3 7 6
15 13 10 9 8 6 7 6 4 7 7 6 5 3 3 5 3 1 2 3 2 2 3 5 3 4 11 5 6 3 4 6 3 5 2 3 4 2 2 4 10 12 9 2 4 1 5
16 14 12 11 10 7 7 5 3 6 6 5 3 3 4 4 2 1 3 3 2 3 3 2 3 8 6 6 3 4 4 4 5 4 3 3 1 2 8 6 4 7 3 2 2 4 3
18 16 15 13 13 9 7 4 2 4 4 2 3 4 3 2 1 1 4 2 4 2 1 5 8 5 5 3 2 5 8 3 2 5 4 5 3 4 3 3 4 1 3 4 4 2 4
19 17 16 14 14 11 7 3 2 2 5 4 3 3 3 3 1 2 3 5 2 1 1 2 5 1 6 5 2 4 3 4 5 3 4 5 5 1 2 2 3 2 6 4 3 4 5
21 19 18 18 14 13 10 5 2 1 4 3 3 3 2 2 2 3 4 5 2 5 3 2 6 5 8 8 6 7 3 1 6 5 5 6 4 3 2 2 3 2 1 2 1 1 2
21 21 19 16 16 15 13 8 4 3 1 2 3 3 1 2 3 4 3 3 2 4 5 5 3 8 7 8 6 4 4 5 5 5 5 2 4 3 0 3 2 2 2 2 1 5 4
24 22 21 18 17 17 15 11 7 5 5 4 3 4 1 2 4 5 5 3 4 4 5 4 4 5 6 4 5 5 4 4 3 3 5 6 4 4 3 1 2 2 3 3 5 5 5
27 23 22 20 18 18 17 14 10 6 6 2 3 3 3 3 4 4 5 7 6 5 6 4 7 6 6 7 7 5 6 1 1 2 1 3 4 2 2 7 3 1 4 2 4 2 8
24 23 20 21 20 20 18 16 13 9 7 2 3 4 2 4 7 9 5 6 5 4 4 2 5 8 8 5 7 6 4 4 4 2 3 1 4 5 6 6 3 3 2 4 3 6 3
23 23 22 22 21 20 19 17 16 11 8 3 3 2 2 4 1 5 6 4 6 6 2 6 6 8 4 6 7 4 6 3 3 3 2 1 3 4 4 4 5 4 5 5 3 5 6
24 24 22 22 21 22 20 18 16 13 13 4 0 2 0 4 5 4 5 7 1 1 3 4 4 5 7 3 5 5 4 4 3 4 2 2 3 4 3 2 5 6 8 7 5 5 3
10 27 24 22 19 20 21 20 18 18 16 3 2 1 2 5 5 5 2 1 3 6 3 2 2 4 1 4 6 5 7 6 6 6 3 2 2 1 5 3 2 7 3 4 10 6 8
18 7 19 16 17 18 22 21 18 18 19 4 2 2 2 4 4 5 6 5 2 3 2 2 2 3 3 3 3 4 3 3 6 2 4 3 3 3 2 3 9 3 1 4 5 3 2
14 19 13 14 17 18 22 22 20 19 17 4 2 2 1 3 2 2 2 4 4 5 4 3 2 2 1 2 1 3 3 2 2 3 2 3 3 0 2 3 4 2 2 2 1 2 4
16 17 20 18 20 19 22 23 21 18 18 5 2 3 0 3 2 2 2 1 2 3 2 3 4 2 1 2 2 3 3 1 2 3 4 2 3 5 5 4 7 2 3 1 5 2 2
14 15 15 19 11 20 22 23 21 19 18 7 1 4 1 3 2 2 1 2 1 2 2 2 3 1 1 1 1 1 1 1 2 2 4 6 4 4 3 3 7 3 2 1 3 2 3
15 14 15 18 20 23 22 24 22 21 19 10 2 2 2 3 3 1 2 1 1 3 1 2 0 2 3 2 1 1 2 1 2 3 3 2 4 3 5 6 0 6 2 2 3 4 2
Wind_Direction
302 314 317 324 331 335 335 343 345 342 341 331 327 326 325 325 324 321 319 318 316 318 319 314 311 322 316 255 273 130 207 324 313 271 257 238 240 237 239 249 248 242 252 259 265 262 271
292 299 294 301 299 316 321 326 331 323 324 319 322 321 322 324 319 314 312 309 305 310 314 312 299 315 272 271 92 131 354 324 303 282 267 249 234 235 273 244 261 275 250 258 273 275 253
292 304 307 305 304 301 300 318 326 317 315 315 317 318 319 320 316 316 310 306 304 307 308 305 284 285 280 262 276 307 287 281 280 280 271 255 245 226 206 243 271 270 268 278 269 274 278
286 278 277 282 295 296 309 312 312 314 311 315 315 319 319 325 319 316 308 300 299 301 301 287 271 283 255 298 354 280 292 292 308 279 267 263 267 245 234 322 178 319 293 265 256 269 279
286 281 278 286 286 295 299 302 305 313 309 311 311 317 317 321 319 315 305 298 294 289 277 268 236 210 271 133 234 7 61 271 296 277 260 247 221 216 202 195 121 168 246 232 264 234 254
280 289 284 279 282 291 294 296 295 302 302 304 307 311 317 323 322 317 309 295 280 298 239 214 241 275 226 302 345 40 264 276 273 272 85 234 218 195 212 179 216 199 217 237 241 224 224
268 268 282 288 297 305 294 301 302 301 303 302 307 312 320 322 322 321 319 315 227 198 232 259 308 276 294 320 300 131 24 327 229 211 205 203 206 213 207 213 257 295 291 269 258 256 254
258 271 270 264 268 275 288 304 306 305 304 301 305 316 321 322 319 310 293 322 53 330 302 279 252 266 275 44 295 173 109 353 299 204 200 185 239 229 234 227 243 239 246 246 277 265 268
237 261 278 267 270 285 297 314 305 307 308 306 308 314 320 318 319 292 308 43 337 308 266 285 260 285 307 328 276 301 189 157 225 276 230 232 190 328 245 216 226 230 235 246 247 278 236
231 231 263 265 267 293 303 298 296 303 308 306 305 312 316 318 297 357 96 79 308 298 327 282 199 174 265 258 262 191 187 244 223 233 243 258 225 242 216 215 202 252 245 235 216 206 184
240 231 234 237 239 257 280 280 295 312 314 306 304 305 308 313 318 279 57 309 302 251 334 277 10 93 256 271 299 193 178 203 302 258 195 258 237 246 239 224 187 236 335 186 244 197 189
230 237 213 216 209 254 270 284 309 314 316 313 313 293 292 236 223 51 4 295 250 259 278 322 333 323 305 292 285 276 217 210 269 282 233 277 197 239 283 263 199 258 294 51 262 236 193
229 221 207 203 211 234 267 283 307 314 322 315 318 258 231 308 19 57 276 231 294 281 45 308 314 330 315 292 313 295 309 282 278 316 7 277 308 276 274 267 216 248 272 195 166 52 206
225 218 216 201 202 220 255 268 290 317 324 314 303 197 213 293 340 268 242 251 281 251 242 131 219 294 282 340 332 286 268 266 171 248 294 299 299 217 198 223 309 208 222 152 198 168 191
219 220 216 207 193 203 238 252 247 311 318 319 165 200 181 135 228 261 260 267 215 262 10 319 302 261 291 203 225 310 262 327 12 7 354 334 346 189 244 324 326 189 38 3 331 44 99
219 216 212 205 189 196 199 235 240 306 303 230 258 188 114 129 225 249 256 251 248 208 276 237 283 317 326 359 212 278 329 73 357 24 358 294 308 6 341 276 208 359 101 294 288 180 211
215 215 216 219 187 186 191 188 260 244 325 169 230 228 92 158 221 229 242 252 302 181 223 257 312 299 325 346 318 305 299 50 26 339 310 283 215 285 264 37 26 0 315 273 201 118 297
215 213 212 203 186 178 187 178 219 189 149 250 274 234 176 228 223 233 233 229 355 244 185 262 270 265 273 328 307 312 334 349 21 314 304 77 296 282 60 151 171 232 109 71 286 336 270
216 213 206 203 189 179 181 181 191 198 197 302 235 109 139 234 234 216 214 239 243 223 211 222 250 233 316 297 316 329 353 94 357 311 360 344 290 315 285 254 198 242 148 205 248 271 261
206 209 207 200 187 182 180 175 178 200 204 253 278 193 134 214 273 279 291 262 221 176 280 249 270 295 275 268 246 269 301 99 64 285 317 293 283 257 238 257 291 167 192 189 303 333 324
197 204 206 199 191 183 181 172 175 186 194 242 225 245 115 193 221 224 276 302 240 216 214 236 264 238 279 293 314 266 354 279 180 205 253 74 286 10 299 247 296 271 328 170 238 264 2
196 202 202 204 194 185 179 175 168 174 178 245 258 244 141 289 90 237 220 256 232 241 166 213 225 298 291 274 278 334 352 313 9 177 292 250 285 318 278 195 263 279 260 242 217 305 299
200 196 203 203 193 183 180 173 165 162 184 231 201 132 78 284 182 212 225 213 163 261 210 291 344 322 279 309 355 324 288 292 282 315 217 272 314 355 297 302 304 293 220 192 163 215 217
327 185 196 199 193 184 176 170 173 169 193 329 346 342 192 262 203 212 211 280 248 222 273 113 238 256 77 300 296 264 252 242 248 232 248 281 237 229 272 327 267 243 60 103 189 213 225
20 221 186 197 195 191 175 175 178 176 196 235 313 248 257 269 268 246 233 233 185 145 230 265 134 43 324 301 309 285 223 242 223 196 241 212 303 277 179 255 271 244 259 143 153 237 329
16 21 21 203 206 195 183 179 179 183 186 200 259 260 335 312 249 27 328 198 235 200 142 163 100 339 275 270 282 271 274 346 215 195 215 291 262 229 308 262 278 306 97 10 1 226 20
352 358 3 0 209 196 186 179 180 179 173 175 212 178 105 255 278 23 235 218 189 322 84 130 159 156 354 237 253 240 282 67 279 244 169 187 216 204 253 273 299 338 111 258 127 200 62
347 1 341 350 296 195 187 179 178 172 175 165 119 168 160 262 281 42 324 258 145 279 270 148 98 268 142 218 248 281 262 213 317 202 181 178 176 202 200 218 278 154 48 58 189 53 63
352 345 346 346 326 194 188 179 175 170 173 184 166 159 163 257 296 2 352 19 340 130 330 175 296 156 208 210 252 336 277 192 289 276 2 283 198 207 184 218 132 189 61 57 46 115 79